loading
|

STARLINK-1263, 45405

Orbit data source: Space-Track

STARLINK-1263, 45405 is a payload satellite owned by SpaceX/Seattle (US) in LEO that was launched on Wed, 18 Mar 2020 UTC via an FALCON 9 launch vehicle from the Air Force Eastern Test Range (AFETR). Payloads include a variety of satellites, spacecraft, and rockets equipped with specific instruments for various scientific and technological missions. These include communications satellites like Starlink; space stations such as the ISS; scientific satellites like the Hubble; Earth observation satellites from companies like Planet Labs, Umbra, and HawkEye 360; GPS; miniature CubeSats for education and research; and military/defense satellites.

Loading next visibility...
Loading greatness...
STARLINK-1263 details
Identifier
45405, 2020-019AX
Orbit
LEO
Last TLE update8 hours ago
Origin
Flag of USSpaceX/Seattle (US)
ManufacturerSpaceX/Seattle
Mission statusOperational
MissionCommercial Communications
Bus & MotorSTARLINK, Unknown motor
Mass260 kg wet, ~248 kg dry
Launch date (UTC)
2020-03-18 (5 years ago)
Launch vehicle
FALCON 9
Launch site
Air Force Eastern Test Range (AFETR)
Object type
Payload
Rocket body
Debris
Radar Cross SectionLarge (>1 m²)

Expand to show TLE details & history

TLE from 8 hours ago
0 STARLINK-1263
1 45405U 20019AX  24261.62876629  .00027004  00000-0  18232-2 0  9992
2 45405  53.0548  32.0641 0001055  92.0290 268.0820 15.06433469248768
Epoch: 2024-09-17T15:05Z
Definitive object data (Epoch: 2024-09-17T15:05:25.407Z)
Latitude-0.00001°
Longitude168.66755°
Altitude548.013 km
Speed7.589 km/s
True Right ascension02h 08m 15s
True Declination0° 00' 00"
Sunlit
Object was in full shadow at TLE epoch
Predictive object data (real-time)
Latitude-46.11271°
Longitude116.19198°
Altitude563.408 km
Speed7.579 km/s
Apparent Right ascension01h 08m 06s
Apparent Declination-49° 24' 59"
Sunlit
Object is in full shadow
Predictive observer data (real-time)
Local Sidereal Time15:35:02
Azimuth122.507° SE
Elevation-62.523°
Doppler factor1
Orbital elements
Apogee548.11 km
Perigee546.649 km
Semi-major axis6,925.517 km
Eccentricity0.0001055
Inclination53.0548°
RAAN32.0641°
Arg. of periapsis92.029°
True anomaly268.06992°
Mean anomaly268.082°
Eccentric anomaly268.07596°
Mean motion3.76587 °/min
BSTAR0.0018232
Period95.6 mins
No data available

STARLINK-1263 Visibility forecast

Observer location: 39.9160978°, -105.1181434

STARLINK-1263 is not visible in the next 10 days
Span
Click to sort rows by Start time (UTC) header in descending order
Start Az.
Max El. time (UTC)
Max El. Az.
Max El.
End time (UTC)
End Az.